Hourly Weather Roundup
Issued by NWS Central Illinois

Home | Current Version | Previous Version | Text Only | Print | Product List | Glossary On
Versions: 1 2 3 4 5 6 7 8 9 10 11 12 13 14 15 16 17 18 19 20 21 22 23 24 25 26 27 28 29 30 31 32 33 34 35 36 37 38 39 40 41 42 43 44 45 46 47 48 49 50
000
NZUS43 KILX 241810
HWRILX

Area Weather Roundup
National Weather Service Lincoln IL
100 PM CDT TUE APR 24 2018

NOTE:  "FAIR" indicates few or no clouds below 12,000 feet, with
       no sigificant weather and/or obstructions to visibility.


CITY           SKY/WX    TMP DP  RH WIND       PRES   REMARKS
Bloomington    PTSUNNY   60  52  74 N12       30.02F
6HR MIN TEMP:  50; 6HR MAX TEMP:  60;

Champaign      CLOUDY    60  53  77 N13       29.99F
6HR MIN TEMP:  51; 6HR MAX TEMP:  61;

Danville       CLOUDY    60  53  78 N12       29.95F
6HR MIN TEMP:  50; 6HR MAX TEMP:  60;

Decatur        CLOUDY    60  52  74 N14       30.00F
6HR MIN TEMP:  52; 6HR MAX TEMP:  61;

Effingham      CLOUDY    59  54  83 NW10      30.00S
6HR MIN TEMP:  53; 6HR MAX TEMP:  59;

Flora          CLOUDY    60  54  78 N10       29.98F
6HR MIN TEMP:  54; 6HR MAX TEMP:  61; 6HR PCP:  0.05;

Galesburg      FAIR      73  38  28 NE12      30.03F
6HR MIN TEMP:  53; 6HR MAX TEMP:  73;

Jacksonville   SUNNY     66  47  51 NE13      30.02F
6HR MIN TEMP:  52; 6HR MAX TEMP:  66;

Lacon          FAIR      66  44  45 N6        30.01F
6HR MIN TEMP:  50; 6HR MAX TEMP:  66;

Lawrenceville  CLOUDY    58  54  86 MISG      29.96F
6HR MIN TEMP:  54; 6HR MAX TEMP:  58; 6HR PCP:  0.06;

Litchfield     CLOUDY    58  53  83 N15       30.01F
6HR MIN TEMP:  52; 6HR MAX TEMP:  58;

$$


CITY           SKY/WX    TMP DP  RH WIND       PRES   REMARKS
Lincoln        PTSUNNY   63  55  75 NE10G17   30.02F
6HR MIN TEMP:  53; 6HR MAX TEMP:  64;

Macomb         SUNNY     70  37  29 N13G18    30.05F
6HR MIN TEMP:  50; 6HR MAX TEMP:  70;

Mattoon        CLOUDY    58  53  84 N15       29.97F
6HR MIN TEMP:  51; 6HR MAX TEMP:  58; 6HR PCP: TRACE;

Mt Carmel AP   CLOUDY    56  53  90 N8        29.96S
6HR MIN TEMP:  54; 6HR MAX TEMP:  56;

Olney-Noble AP CLOUDY    57  55  93 N10       29.98S
Paris AP       CLOUDY    60  53  80 N9        29.98F
6HR MIN TEMP:  51; 6HR MAX TEMP:  60;

Peoria         FAIR      69  46  43 VRB3G18   30.01F
6HR MIN TEMP:  51; 6HR MAX TEMP:  69;

Pontiac        PTSUNNY   63  53  69 N9        30.02F
6HR MIN TEMP:  50; 6HR MAX TEMP:  63;

Rantoul        CLOUDY    61  54  77 N12       29.99F
6HR MIN TEMP:  53; 6HR MAX TEMP:  61;

Robinson       CLOUDY    56  53  91 N8        29.96F
6HR MIN TEMP:  52; 6HR MAX TEMP:  56; 6HR PCP:  0.01;

Springfield    CLOUDY    63  54  72 NE14      30.02F
6HR MIN TEMP:  53; 6HR MAX TEMP:  64; 6HR PCP: TRACE;

Taylorville    CLOUDY    60  54  80 N15       30.01F
6HR MIN TEMP:  53; 6HR MAX TEMP:  61;

$$

...REGIONAL REPORTS...


CITY           SKY/WX    TMP DP  RH WIND       PRES   REMARKS
Chicago O`Hare PTSUNNY   64  48  56 NE9       30.02F
Kankakee       CLOUDY    62  51  67 NE9       30.01F
La Salle       FAIR      71  40  32 NE13      30.01F
Moline         FAIR      72  29  20 N9        30.02F
Mount Sterling MOSUNNY   68  45  42 N15G22    30.03F
Mount Vernon   CLOUDY    60  53  77 VRB6      29.98F
Pittsfield     CLOUDY    68  50  52 N12       30.04F
Quincy         SUNNY     70  42  36 NW14G23   30.04F
Rockford       FAIR      69  30  23 N12G17    30.03F
$$


CITY           SKY/WX    TMP DP  RH WIND       PRES   REMARKS
Burlington     SUNNY     71  33  24 N10       30.04F
Cedar Rapids   FAIR      72  29  20 N12       30.06F
Des Moines     CLOUDY    73  33  23 N5        30.09F
Kirksville     SUNNY     71  36  27 VRB7G17   30.08F
Ottumwa        SUNNY     72  30  21 N10G17    30.06F
St Louis       PTSUNNY   62  53  72 N14       30.03F
$$


CITY           SKY/WX    TMP DP  RH WIND       PRES   REMARKS
Terre Haute    CLOUDY    57  52  83 N10       29.96F
Evansville     LGT RAIN  56  55  97 N8        29.94F
Indianapolis   DRIZZLE   55  53  93 NE7       29.94F FOG
Lafayette      CLOUDY    57  52  83 NE8       29.97F
Madison        FAIR      69  30  23 N8        30.04F
Milwaukee      FAIR      58  42  55 NE8       30.06F
$$






USA.gov is the U.S. government's official web portal to all federal, state and local government web resources and services.